Gilze-Rijen, Netherlands

5:25 PM CEST on August 27, 2016 (GMT +0200)
Gilze-Rijen Air Base

Weather History for EHGR - February, 2014

Change the Weather History Date:

Sunday, February 9, 2014

  Actual Average Record
Temperature  
Mean Temperature 42 °F -  
Max Temperature 46 °F 45 °F 57 °F (2008)
Min Temperature 37 °F 34 °F 12 °F (2012)
Degree Days  
Heating Degree Days 24    
Moisture  
Dew Point 35 °F    
Average Humidity 71    
Maximum Humidity 93    
Minimum Humidity 51    
Precipitation  
Precipitation 0.02 in - - ()
Sea Level Pressure  
Sea Level Pressure 29.23 in    
Wind  
Wind Speed 18 mph ()    
Max Wind Speed 27 mph    
Max Gust Speed 41 mph    
Visibility 7.8 miles    
Events Rain    
Averages and records for this station are not official NWS values.
T = Trace of Precipitation, MM = Missing Value Source: Averaged Metar Reports

Daily Weather History Graph

Daily Weather History Graph

Search for Another Location

Airport or City:

Trip Planner

Search our weather history database for the weather conditions in past years. The results will help you decide how hot, cold, wet, or windy it might be!

Date:

Astronomy

Feb. 09, 2014 Rise Set
Actual Time 8:05 AM CET 5:44 PM CET
Civil Twilight 7:30 AM CET 6:19 PM CET
Nautical Twilight 6:50 AM CET 6:58 PM CET
Astronomical Twilight 6:12 AM CET 7:37 PM CET
Moon 12:59 PM CET (2/9) 4:09 AM CET (2/9)
Length of Visible Light 10h 48m
Length of Day
9h 38m
Waxing Gibbous, 75% of the Moon is Illuminated
Feb 9
Waxing Gibbous
Feb 15
Full
Feb 22
Last Quarter
Mar 1
New
Mar 8
First Quarter

Hourly Weather History & Observations

Time (CET) Temp. Windchill Dew Point Humidity Pressure Visibility Wind Dir Wind Speed Gust Speed Precip Events Conditions
12:00 AM 43 °F - 34 °F 62% 29.12 in 28 mi SSW 17.9 mph - -   Overcast
12:25 AM 42.8 °F 34.3 °F 33.8 °F 70% 29.12 in 6.2 mi SSW 19.6 mph 31.1 mph N/A   Overcast
12:55 AM 44.6 °F 36.9 °F 35.6 °F 71% 29.12 in 6.2 mi SSW 18.4 mph - N/A   Overcast
1:00 AM 44 °F - 35 °F 62% 29.13 in 13 mi SSW 20.1 mph - - Rain Light Drizzle
1:10 AM 42.8 °F 34.5 °F 35.6 °F 76% 29.12 in 6.2 mi SW 18.4 mph - N/A   Drizzle
1:25 AM 42.8 °F 34.8 °F 37.4 °F 81% 29.12 in 6.2 mi SSW 17.3 mph 31.1 mph N/A Rain Drizzle
1:43 AM 42.8 °F 34.3 °F 37.4 °F 81% 29.12 in 6.2 mi SSW 19.6 mph 32.2 mph N/A   Light Drizzle
1:55 AM 42.8 °F 34.3 °F 37.4 °F 81% 29.12 in 6.2 mi SSW 19.6 mph 33.4 mph N/A   Light Drizzle
2:00 AM 42 °F - 37 °F 76% 29.14 in 8 mi SSW 17.9 mph - - Rain Drizzle
2:25 AM 42.8 °F 34.5 °F 37.4 °F 81% 29.12 in 6.2 mi SSW 18.4 mph - N/A   Mostly Cloudy
2:37 AM 42.8 °F 34.3 °F 37.4 °F 81% 29.12 in 6.2 mi SSW 19.6 mph - N/A   Mostly Cloudy
2:39 AM 42.8 °F 34.5 °F 37.4 °F 81% 29.12 in 6.2 mi SSW 18.4 mph - N/A   Overcast
2:55 AM 42.8 °F 34.5 °F 37.4 °F 81% 29.12 in 6.2 mi SSW 18.4 mph - N/A   Overcast
3:00 AM 43 °F - 36 °F 70% 29.13 in 18 mi SSW 17.9 mph - - Rain Drizzle
3:02 AM 42.8 °F 34.5 °F 35.6 °F 76% 29.12 in 6.2 mi SSW 18.4 mph - N/A   Overcast
3:09 AM 42.8 °F 34.3 °F 35.6 °F 76% 29.12 in 6.2 mi SSW 19.6 mph - N/A   Mostly Cloudy
3:17 AM 42.8 °F 34.5 °F 35.6 °F 76% 29.12 in 6.2 mi SSW 18.4 mph - N/A   Mostly Cloudy
3:25 AM 42.8 °F 34.5 °F 35.6 °F 76% 29.12 in 6.2 mi SSW 18.4 mph 34.5 mph N/A   Mostly Cloudy
3:55 AM 44.6 °F 36.4 °F 35.6 °F 71% 29.12 in 6.2 mi SW 20.7 mph - N/A   Overcast
4:00 AM 44 °F - 36 °F 64% 29.14 in 17 mi SW 17.9 mph - -   Partly Cloudy
4:25 AM 44.6 °F 36.9 °F 35.6 °F 71% 29.12 in 6.2 mi SW 18.4 mph 32.2 mph N/A   Overcast
4:55 AM 44.6 °F 36.6 °F 35.6 °F 71% 29.12 in 6.2 mi SSW 19.6 mph 32.2 mph N/A   Overcast
5:00 AM 44 °F - 34 °F 59% 29.15 in 17 mi SSW 20.1 mph - -   Partly Cloudy
5:25 AM 42.8 °F 34.3 °F 33.8 °F 70% 29.15 in 6.2 mi SSW 19.6 mph - N/A   Overcast
5:55 AM 42.8 °F 34.5 °F 33.8 °F 70% 29.15 in 6.2 mi SSW 18.4 mph 31.1 mph N/A   Overcast
6:00 AM 43 °F - 34 °F 61% 29.16 in 22 mi SW 20.1 mph - -   Partly Cloudy
6:25 AM 42.8 °F 34.3 °F 33.8 °F 70% 29.15 in 6.2 mi SSW 19.6 mph 33.4 mph N/A   Mostly Cloudy
6:55 AM 42.8 °F 34.0 °F 33.8 °F 70% 29.15 in 6.2 mi SSW 20.7 mph 33.4 mph N/A   Overcast
7:00 AM 43 °F - 33 °F 59% 29.17 in 22 mi SSW 20.1 mph - -   Partly Cloudy
7:25 AM 42.8 °F 33.5 °F 33.8 °F 70% 29.15 in 6.2 mi SSW 23.0 mph 35.7 mph N/A   Overcast
7:55 AM 42.8 °F 33.8 °F 33.8 °F 70% 29.15 in 6.2 mi SSW 21.9 mph 39.1 mph N/A   Overcast
8:00 AM 42 °F - 33 °F 62% 29.18 in 22 mi SSW 20.1 mph - -   Overcast
8:25 AM 42.8 °F 34.0 °F 33.8 °F 70% 29.18 in 6.2 mi SSW 20.7 mph - N/A   Mostly Cloudy
8:55 AM 42.8 °F 33.5 °F 32.0 °F 66% 29.18 in 6.2 mi SSW 23.0 mph 36.8 mph N/A   Mostly Cloudy
9:00 AM 43 °F - 33 °F 56% 29.19 in 28 mi SSW 24.6 mph - -   Partly Cloudy
9:25 AM 42.8 °F 33.3 °F 33.8 °F 70% 29.18 in 6.2 mi SSW 24.2 mph 41.4 mph N/A   Overcast
9:26 AM 42.8 °F 33.8 °F 33.8 °F 70% 29.18 in 6.2 mi SSW 21.9 mph 41.4 mph N/A Rain Light Rain
9:40 AM 41.0 °F 31.4 °F 33.8 °F 76% 29.18 in 6.2 mi SSW 21.9 mph - N/A   Light Drizzle
9:55 AM 41.0 °F 31.1 °F 35.6 °F 81% 29.18 in 6.2 mi SSW 23.0 mph - N/A   Drizzle
9:59 AM 41.0 °F 30.7 °F 33.8 °F 76% 29.18 in 6.2 mi SSW 25.3 mph - N/A   Drizzle
10:00 AM 41 °F - 35 °F 71% 29.20 in 7 mi SSW 26.8 mph - - Rain Heavy Rain
10:25 AM 41.0 °F 30.9 °F 35.6 °F 81% 29.18 in 6.2 mi SSW 24.2 mph 38.0 mph N/A   Light Drizzle
10:30 AM 41.0 °F 31.1 °F 35.6 °F 81% 29.18 in 6.2 mi SSW 23.0 mph 35.7 mph N/A   Light Drizzle
10:40 AM 42.8 °F 33.5 °F 35.6 °F 76% 29.18 in 6.2 mi SSW 23.0 mph - N/A   Light Drizzle
10:44 AM 42.8 °F 33.8 °F 35.6 °F 76% 29.18 in 6.2 mi SSW 21.9 mph - N/A   Light Drizzle
10:55 AM 42.8 °F 33.1 °F 35.6 °F 76% 29.18 in 6.2 mi SSW 25.3 mph 39.1 mph N/A   Light Drizzle
11:00 AM 42 °F - 35 °F 68% 29.21 in 16 mi SSW 24.6 mph - - Rain Light Drizzle
11:25 AM 42.8 °F 33.8 °F 35.6 °F 76% 29.21 in 6.2 mi SSW 21.9 mph 34.5 mph N/A   Overcast
11:55 AM 42.8 °F 33.8 °F 33.8 °F 70% 29.21 in 6.2 mi SSW 21.9 mph 35.7 mph N/A   Overcast
12:00 PM 44 °F - 34 °F 58% 29.24 in 25 mi SSW 22.4 mph - - Rain Drizzle
12:25 PM 44.6 °F 36.4 °F 33.8 °F 66% 29.24 in 6.2 mi SSW 20.7 mph 35.7 mph N/A   Overcast
12:55 PM 44.6 °F 36.6 °F 33.8 °F 66% 29.24 in 6.2 mi SSW 19.6 mph 31.1 mph N/A   Overcast
1:00 PM 44 °F - 34 °F 58% 29.24 in 19 mi SSW 20.1 mph - -   Partly Cloudy
1:25 PM 44.6 °F 35.9 °F 33.8 °F 66% 29.24 in 6.2 mi SSW 23.0 mph 34.5 mph N/A   Mostly Cloudy
1:55 PM 44.6 °F 36.6 °F 33.8 °F 66% 29.24 in 6.2 mi SW 19.6 mph 31.1 mph N/A   Mostly Cloudy
2:00 PM 45 °F - 34 °F 55% 29.26 in 19 mi SW 20.1 mph - -   Overcast
2:25 PM 46.4 °F 39.0 °F 33.8 °F 62% 29.24 in 6.2 mi SW 19.6 mph - N/A   Mostly Cloudy
2:55 PM 46.4 °F 39.2 °F 33.8 °F 62% 29.24 in 6.2 mi SW 18.4 mph - N/A   Overcast
3:00 PM 46 °F - 34 °F 52% 29.26 in 19 mi SW 17.9 mph - -   Scattered Clouds
3:25 PM 46.4 °F 38.5 °F 33.8 °F 62% 29.27 in 6.2 mi SW 21.9 mph 39.1 mph N/A   Mostly Cloudy
3:55 PM 46.4 °F 39.5 °F 33.8 °F 62% 29.27 in 6.2 mi SW 17.3 mph - N/A   Scattered Clouds
4:00 PM 46 °F - 34 °F 51% 29.28 in 19 mi SW 20.1 mph - -   Partly Cloudy
4:25 PM 46.4 °F 38.7 °F 33.8 °F 62% 29.27 in 6.2 mi SW 20.7 mph 32.2 mph N/A   Mostly Cloudy
4:55 PM 44.6 °F 36.6 °F 33.8 °F 66% 29.30 in 6.2 mi SW 19.6 mph 31.1 mph N/A   Mostly Cloudy
5:00 PM 44 °F - 34 °F 58% 29.30 in 28 mi SW 17.9 mph - -   Overcast
5:25 PM 44.6 °F 37.2 °F 33.8 °F 66% 29.30 in 6.2 mi SW 17.3 mph 31.1 mph N/A   Overcast
5:55 PM 42.8 °F 35.1 °F 33.8 °F 70% 29.30 in 6.2 mi SW 16.1 mph 27.6 mph N/A   Partly Cloudy
6:00 PM 43 °F - 34 °F 61% 29.32 in 22 mi SW 15.7 mph - -   Partly Cloudy
6:25 PM 42.8 °F 34.5 °F 33.8 °F 70% 29.33 in 6.2 mi SSW 18.4 mph - N/A   Mostly Cloudy
6:55 PM 42.8 °F 35.8 °F 33.8 °F 70% 29.33 in 6.2 mi SSW 13.8 mph - N/A   Mostly Cloudy
7:00 PM 42 °F - 33 °F 62% 29.35 in 25 mi SSW 13.4 mph - -   Partly Cloudy
7:25 PM 42.8 °F 35.8 °F 33.8 °F 70% 29.33 in 6.2 mi SW 13.8 mph - N/A   Unknown
7:55 PM 42.8 °F 35.8 °F 33.8 °F 70% 29.36 in 6.2 mi SW 13.8 mph - N/A   Partly Cloudy
8:00 PM 42 °F - 33 °F 62% 29.36 in 22 mi SSW 13.4 mph - -   Scattered Clouds
8:25 PM 41.0 °F 33.9 °F 33.8 °F 76% 29.36 in 6.2 mi SSW 12.7 mph - N/A   Partly Cloudy
8:55 PM 41.0 °F 33.5 °F 33.8 °F 76% 29.36 in 6.2 mi SSW 13.8 mph - N/A   Unknown
9:00 PM 40 °F - 34 °F 70% 29.37 in 19 mi SSW 13.4 mph - -  
9:25 PM 41.0 °F 33.9 °F 33.8 °F 76% 29.36 in 6.2 mi SSW 12.7 mph - N/A   Mostly Cloudy
9:55 PM 41.0 °F 34.3 °F 33.8 °F 76% 29.36 in 6.2 mi SSW 11.5 mph - N/A   Mostly Cloudy
10:00 PM 41 °F - 34 °F 68% 29.38 in 16 mi SSW 13.4 mph - -   Mostly Cloudy
10:25 PM 41.0 °F 35.2 °F 35.6 °F 81% 29.39 in 6.2 mi SSW 9.2 mph - N/A Rain Light Rain
10:33 PM 41.0 °F 36.4 °F 35.6 °F 81% 29.39 in 6.2 mi West 6.9 mph - N/A Rain Light Rain
10:49 PM 41.0 °F 37.1 °F 35.6 °F 81% 29.39 in 6.2 mi West 5.8 mph - N/A Rain Light Rain
10:55 PM 41.0 °F 35.2 °F 35.6 °F 81% 29.39 in 6.2 mi West 9.2 mph 23.0 mph N/A Rain Light Rain
11:00 PM 39 °F - 36 °F 85% 29.42 in 5 mi West 13.4 mph - - Rain Light Rain Showers
11:11 PM 39.2 °F 32.5 °F 35.6 °F 87% 29.42 in 6.2 mi West 10.4 mph - N/A Rain Light Rain
11:25 PM 39.2 °F 34.2 °F 35.6 °F 87% 29.42 in 6.2 mi WSW 6.9 mph - N/A Rain Light Rain
11:33 PM 39.2 °F 35.9 °F 35.6 °F 87% 29.42 in 6.2 mi WSW 4.6 mph - N/A Rain Light Rain
11:55 PM 37.4 °F 34.9 °F 35.6 °F 93% 29.42 in 6.2 mi SW 3.5 mph - N/A   Overcast
11:59 PM 37.4 °F 34.9 °F 35.6 °F 93% 29.42 in 6.2 mi SW 3.5 mph - N/A   Overcast